Overview Statistics Trail Chart Weather Telemetry Raw packets
 

This is the latest recevied weather packets stored in our database for station/object SV9TNF-52. If no packets are shown the sender has not sent any weather packets the latest 10 day(s).

<< 38 39 40 41 42 43 44 >>
Time Temp. Humidity Pressure Rain* Wind** Luminosity Snow
1788400141 22.22° C 51% 1018 hPa 0 mm 5.36 m/s, 218° - -
1788399841 22.22° C 51% 1018 hPa 0 mm 6.71 m/s, 164° - -
1788399541 22.22° C 52% 1018 hPa 0 mm 6.26 m/s, 219° - -
1788399240 21.67° C 52% 1018 hPa 0 mm 6.26 m/s, 176° - -
1788398941 21.67° C 52% 1018 hPa 0 mm 4.92 m/s, 254° - -
1788398640 21.67° C 52% 1018.3 hPa 0 mm 6.26 m/s, 198° - -
1788398340 21.67° C 52% 1018.3 hPa 0 mm 5.81 m/s, 211° - -
1788398040 22.22° C 52% 1018.3 hPa 0 mm 5.36 m/s, 191° - -
1788397740 21.67° C 52% 1018.3 hPa 0 mm 5.81 m/s, 206° - -
1788397440 21.67° C 52% 1018.3 hPa 0 mm 5.81 m/s, 154° - -
1788397140 21.67° C 53% 1018.3 hPa 0 mm 5.81 m/s, 217° - -
1788396840 22.22° C 53% 1018.3 hPa 0 mm 5.81 m/s, 168° - -
1788396539 22.22° C 53% 1018.3 hPa 0 mm 5.81 m/s, 197° - -
1788396240 22.22° C 53% 1018.3 hPa 0 mm 8.05 m/s, 203° - -
1788395939 22.22° C 53% 1018.3 hPa 0 mm 7.15 m/s, 178° - -
1788395639 22.22° C 53% 1018.3 hPa 0 mm 8.05 m/s, 212° - -
1788395339 22.22° C 53% 1018.3 hPa 0 mm 4.92 m/s, 190° - -
1788395039 22.22° C 53% 1018.3 hPa 0 mm 7.15 m/s, 168° - -
1788394739 22.22° C 53% 1018.3 hPa 0 mm 9.83 m/s, 195° - -
1788394439 22.22° C 53% 1018.3 hPa 0 mm 7.6 m/s, 252° - -
1788394139 22.22° C 52% 1018.3 hPa 0 mm 5.36 m/s, 196° - -
1788393839 22.22° C 52% 1018.3 hPa 0 mm 6.71 m/s, 217° - -
1788393538 22.78° C 51% 1018.3 hPa 0 mm 8.94 m/s, 236° - -
1788393239 22.22° C 51% 1018.3 hPa 0 mm 7.15 m/s, 208° - -
1788392938 22.22° C 50% 1018.3 hPa 0 mm 7.6 m/s, 261° - -

* Rain latest hour (hover to see other rain measurements)
** Current wind speed in m/s (hover to see current wind gust speed)